FW2738 Weather Reports


Display with metric or nautical units.
time (UTC)temp
F
wind
direction
speed
MPH
gust
MPH
rain 1hr
in
rain 24hr
in
rain mn
in
humidity
%
barometer
mb
20260901140025 83 131 3.0 7.0 0.00 0.00 0.00 66 1016.0
20260901134525 82 146 4.0 7.0 0.00 0.00 0.00 67 1016.0
20260901133019 81 153 4.0 9.0 0.00 0.00 0.00 69 1016.0
20260901131518 80 142 3.0 7.0 0.00 0.00 0.00 70 1016.0
20260901130023 78 149 3.0 5.0 0.00 0.00 0.00 72 1015.7
20260901124521 77 138 0.0 0.0 0.00 0.00 0.00 73 1015.5
20260901123032 76 138 0.0 0.0 0.00 0.00 0.00 75 1015.3
20260901121512 75 138 0.0 0.0 0.00 0.00 0.00 75 1015.2
20260901120008 75 138 0.0 0.0 0.00 0.00 0.00 74 1014.9
20260901114507 76 138 0.0 0.0 0.00 0.00 0.00 74 1014.9
20260901113006 76 138 0.0 0.0 0.00 0.00 0.00 73 1014.9
20260901111504 76 138 0.0 0.0 0.00 0.00 0.00 72 1014.8
20260901110002 76 138 0.0 0.0 0.00 0.00 0.00 71 1014.6
20260901104600 77 138 0.0 0.0 0.00 0.00 0.00 70 1014.5
20260901103058 77 155 0.0 2.0 0.00 0.00 0.00 69 1014.5
20260901101556 78 145 2.0 5.0 0.00 0.00 0.00 68 1014.6
20260901100056 78 137 3.0 4.0 0.00 0.00 0.00 68 1014.6
20260901094554 78 146 2.0 4.0 0.00 0.00 0.00 67 1014.6
20260901093053 79 133 3.0 6.0 0.00 0.00 0.00 66 1014.6
20260901091552 79 138 2.0 6.0 0.00 0.00 0.00 65 1014.7
20260901090049 80 134 3.0 7.0 0.00 0.00 0.00 64 1014.6
20260901084547 80 136 3.0 7.0 0.00 0.00 0.00 63 1014.6
20260901083045 81 130 4.0 7.0 0.00 0.00 0.00 62 1014.5
20260901081543 81 129 4.0 8.0 0.00 0.00 0.00 61 1014.5
20260901080041 81 128 5.0 9.0 0.00 0.00 0.00 60 1014.4
20260901074540 82 115 4.0 7.0 0.00 0.00 0.00 59 1014.5
20260901073039 82 130 5.0 8.0 0.00 0.00 0.00 58 1014.3
20260901071537 82 110 4.0 8.0 0.00 0.00 0.00 58 1014.4
20260901070037 82 133 4.0 7.0 0.00 0.00 0.00 59 1014.3
20260901064536 82 123 3.0 8.0 0.00 0.00 0.00 58 1014.2
20260901063043 82 152 4.0 7.0 0.00 0.00 0.00 57 1014.4
20260901061531 83 135 3.0 7.0 0.00 0.00 0.00 56 1014.2
20260901060029 83 144 4.0 9.0 0.00 0.00 0.00 55 1014.1
20260901054527 84 131 4.0 10.0 0.00 0.00 0.00 54 1014.0
20260901053025 84 126 4.0 8.0 0.00 0.00 0.00 53 1013.9
20260901051532 85 122 5.0 11.0 0.00 0.00 0.00 52 1014.0
20260901050020 85 109 6.0 11.0 0.00 0.00 0.00 51 1013.7
20260901044519 85 132 6.0 11.0 0.00 0.00 0.00 51 1013.7
20260901043029 85 125 6.0 9.0 0.00 0.00 0.00 50 1013.7
20260901041518 86 126 7.0 11.0 0.00 0.00 0.00 49 1013.7
20260901040023 86 118 5.0 9.0 0.00 0.00 0.00 48 1013.7
20260901034518 86 115 4.0 7.0 0.00 0.00 0.00 48 1013.6
20260901033019 86 105 3.0 6.0 0.00 0.00 0.00 46 1013.5
20260901031518 87 115 3.0 7.0 0.00 0.00 0.00 46 1013.4
20260901030015 86 103 3.0 6.0 0.00 0.00 0.00 47 1013.2
20260901024515 87 103 3.0 6.0 0.00 0.00 0.00 47 1013.0
20260901023023 87 87 3.0 6.0 0.00 0.00 0.00 47 1012.9
20260901021514 86 98 2.0 4.0 0.00 0.00 0.00 50 1012.8
20260901020013 85 115 1.0 2.0 0.00 0.00 0.00 52 1012.6
20260901014514 86 93 0.0 0.0 0.00 0.00 0.00 51 1012.5
20260901013014 87 133 0.0 0.0 0.00 0.00 0.00 48 1012.5
20260901011515 90 133 0.0 2.0 0.00 0.00 0.00 44 1012.4
20260901010011 91 134 2.0 4.0 0.00 0.00 0.00 41 1012.3
20260901004511 93 138 2.0 5.0 0.00 0.00 0.00 39 1012.2
20260901003011 94 146 3.0 9.0 0.00 0.00 0.00 37 1012.1
20260901001511 95 141 3.0 9.0 0.00 0.00 0.00 37 1012.0
20260901000010 96 138 5.0 9.0 0.00 0.00 0.00 36 1012.0
20260831234511 97 130 3.0 8.0 0.00 0.00 0.00 33 1012.1
20260831233009 97 119 3.0 7.0 0.00 0.00 0.00 32 1012.0
20260831231509 96 134 6.0 14.0 0.00 0.00 0.00 33 1012.1
20260831230010 98 150 4.0 11.0 0.00 0.00 0.00 32 1012.0
20260831224507 98 155 4.0 12.0 0.00 0.00 0.00 33 1012.3
20260831223007 98 118 7.0 10.0 0.00 0.00 0.00 32 1012.3
20260831221505 97 83 7.0 12.0 0.00 0.00 0.00 33 1012.4
20260831220008 99 119 12.0 16.0 0.00 0.00 0.00 32 1012.5
20260831214504 100 154 4.0 13.0 0.00 0.00 0.00 30 1012.5
20260831213002 100 149 4.0 10.0 0.00 0.00 0.00 31 1012.6
20260831211600 99 144 9.0 17.0 0.00 0.00 0.00 31 1012.8
20260831210100 99 140 2.0 14.0 0.00 0.00 0.00 32 1013.1
20260831204559 100 167 5.0 14.0 0.00 0.00 0.00 32 1013.2
20260831203101 98 216 5.0 12.0 0.00 0.00 0.00 33 1013.4
20260831201557 99 62 5.0 11.0 0.00 0.00 0.00 32 1013.5
20260831200055 99 137 9.0 16.0 0.00 0.00 0.00 35 1013.7
20260831194632 96 211 1.0 5.0 0.00 0.00 0.00 32 1014.0
20260831193054 97 152 5.0 15.0 0.00 0.00 0.00 35 1014.1
20260831191553 97 165 4.0 10.0 0.00 0.00 0.00 38 1014.2
20260831190111 97 193 4.0 13.0 0.00 0.00 0.00 35 1014.4
20260831184551 97 161 10.0 17.0 0.00 0.00 0.00 37 1014.4
20260831183048 97 188 7.0 12.0 0.00 0.00 0.00 38 1014.7
20260831181547 96 205 9.0 16.0 0.00 0.00 0.00 37 1014.9
20260831180045 96 161 8.0 14.0 0.00 0.00 0.00 38 1015.2
20260831174544 96 165 8.0 14.0 0.00 0.00 0.00 40 1015.3
20260831173042 95 146 7.0 13.0 0.00 0.00 0.00 40 1015.4
20260831171542 94 170 11.0 17.0 0.00 0.00 0.00 42 1015.5
20260831170039 94 229 4.0 14.0 0.00 0.00 0.00 43 1015.7
20260831164540 93 223 9.0 14.0 0.00 0.00 0.00 44 1015.7
20260831163039 93 187 8.0 18.0 0.00 0.00 0.00 42 1015.8
20260831161534 92 213 10.0 17.0 0.00 0.00 0.00 43 1015.8
20260831160033 92 209 10.0 14.0 0.00 0.00 0.00 42 1015.9
20260831154531 92 188 8.0 13.0 0.00 0.00 0.00 43 1015.9
20260831153029 90 219 9.0 12.0 0.00 0.00 0.00 46 1015.8
20260831151525 89 202 6.0 13.0 0.00 0.00 0.00 51 1015.7
20260831150024 88 217 10.0 14.0 0.00 0.00 0.00 50 1015.7
20260831144521 87 221 8.0 13.0 0.00 0.00 0.00 53 1015.7
20260831143028 85 186 5.0 11.0 0.00 0.00 0.00 62 1015.7
20260831141535 84 213 4.0 10.0 0.00 0.00 0.00 64 1015.8